Timeline UpdatesTrip UpdatesNews PostsPvt PostsTravel TipsAdmin PostsConv PostsFollowed PostsChat RequestsBlog PostsPNR Posts

Disclaimer
Search
 
 
Wed Aug 20, 2014 20:06:48 ISTHomeTrainsΣChainsAtlasPNRForumGalleryNewsFAQTripsMembersLoginFeedback
No Recent News for this Train
Other Trains in the News **new
Latest...
...
Wed Nov 20, 2013 (01:17AM)
⇐ Return Journey: Train# 12861

12862-Slip⇒12722-Slip/Nizamuddin Visakapatnam Link SF Express

Dec 31 2013 (1:30PM)
Change Departure Station:
Change Arrival Station:
Post a Train Travel TipPost a Train Travel Tip **new
Post a Comment/Question/Picture/VideoPost a Comment/Question/Picture/Video
Pantry/Catering
???
Loco/Rake Reversals
BZA/Vijayawada Junction (10);
RSA - Rake Sharing
Rake/Coach Composition
from KZJ to ; BZA is; LOCO-SLR-S10-S9-S8-A2-B2-GEN-GEN-GEN-GEN-GEN-SLR; COACH COMPOSITION for Link Dakshin Express (12722-slip&12862) from BZA to VSKP is; LOCO-SLR-GEN-GEN-GEN-GEN-GEN-B2-A2-S8-S9-S10-SLR.; author-suraj.
Loco
News    PNR    Forum    Time-Table    Availability    Fare Chart    Map    Arr/Dep History    Trips    Gallery    ΣChains    X/O    Timeline    
Travel Time: 34h 32m    52 halts    Distance: 1894 km    Avg Speed: 54 km/hr
Type: SuperFast
Zone: ECoR/East Coast
Departs @ 23:00 (Avg on time)
Platform# 7
SMTWTFS
Delhi Hazrat Nizamuddin/NZM 
Arrives @ 09:32 +2 nights
Platform# 3
SMTWTFS
Rajahmundry/RJY 

52 halts. 262 intermediate Stations between Delhi Hazrat Nizamuddin and Rajahmundry

Show ALL intermediate Stations  Show Old Time-Table

#CodeStation NameX/OArrivesAvgDepartsAvgHaltPFDay#KmSpeedElevZoneAddress
1NZM»Delhi Hazrat Nizamuddin (7)»  -23:00+0710.069209mNRNew Delhi 110013, Delhi NCT
2FDBFaridabad (4)  23:18+423:20+42m3120.844206mNRold Faridabad, Haryana
3BVHBallabgarh (5)  23:31+423:33+42m--128.981203mNRFaridabad, Haryana
4KSVKosi Kalan (3)O  00:20+1100:22+112m2292.575189mNCRKosi Kalan, Uttar Pradesh
5MTJMathura Junction (10)X  00:55+1201:00+135m12133.946179mNCRMathura, Uttar Pradesh
6AGCAgra Cantt. (6)X  02:10+202:15+25m12187.690174mNCRAgra, Uttar Pradesh
7MRAMorena (3)  03:08+1903:10+212m12267.175176mNCRMorena, Madhya Pradesh
8GWLGwalior Junction (4)X  03:41+2803:46+285m12305.669214mNCRGwalior, Madhya Pradesh
9DAADatia (2)X  04:49+2704:51+282m--2378.352264mNCRDatia, Madhya Pradesh
10JHSJhansi Junction (7)X  05:20+2905:28+338m--2403.4-259mNCRJhansi, Uttar Pradesh
11BABBabina (3)  05:38+5305:40+532m12428.953285mNCRBabina, Uttar Pradesh
12LARLalitpur (3)X  06:53+2606:55+282m12493.763373mNCRLalitpur, Uttar Pradesh
13BINABina Junction (4)X  07:55+2708:00+275m22556.669414mWCRJn Pt - KATNI/GUNA/ BPL/JHS, Madhya Pradesh
14MABAMandi Bamora (3)X  08:15+3108:17+302m22573.871413mWCRState Highway 14, Madhya Pradesh
15BAQGanj Basoda (4)X  08:41+3008:43+302m--2602.391 WCRVidisha, Madhya Pradesh
16BHSVidisha (3)O  09:09+3709:11+372m22641.650 WCRVidisha, Madhya Pradesh
17BPLBhopal Junction (6)X  10:15+2210:20+245m12695.238497mWCRBhopal, Madhya Pradesh
18HBJBhopal HabibGanj (5)  10:30+2810:32+282m--2701.470496mWCRHabibGanj, Madhya Pradesh
19HBDHoshangabad (2)  11:30+4011:32+402m--2768.823308mWCRHoshangabad, Madhya Pradesh
20ETItarsi Junction (7)  12:20+1812:25+235m32786.973329mWCRItarsi 461111, Madhya Pradesh
21GDYAGhoradongri (3)X  13:23+3013:25+302m--2857.245 CRBetul, Madhya Pradesh
22BZUBetul (3)X  14:13+2914:15+302m--2893.153644mCRBetul, Madhya Pradesh
23AMLAAmla Junction (5)X  14:41+2614:43+272m--2916.098733mCRAmla Distt. Betul, Madhya Pradesh
24MTYMultai (2)X  14:57+3014:59+302m--2938.953762mCRMultai, Madhya Pradesh
25PARPandhurna (2)X  15:45+2915:47+292m--2979.785481mCRDistt: Chhindwara, Madhya Pradesh
26NRKRNarkher Junction (4)  16:00+3216:02+322m--2998.076411mCRNarkher, Maharashtra
27KATLKatol (2)X  16:22+3316:24+332m--21023.251 CRKatol, Maharashtra
28NGPNagpur Junction (8)X  17:35+1817:45+2210m221084.083314mCRNagpur 440001, Maharashtra
29SNISindi (2)X  18:19+3718:21+382m--21130.959258mCRWardha, Maharashtra
30SEGMSewagram Junction (5)  18:51+3518:53+352m--21160.271279mCRWardha, Maharashtra
31HGTHinganghat (3)X  19:21+3619:23+362m--21193.378228mCRHinganghat, Maharashtra
32WRRWarora (2)  19:53+3719:55+382m--21232.470214mCRWarora, Maharashtra
33BUXBhandak (5)  20:14+4120:16+412m--21254.549207mCRChandrapur, Maharashtra
34CDChandrapur Maharashtra (3)  20:46+3520:48+362m--21278.813194mCRChandrapur 442401, Maharashtra
35BPQBalharshah Junction (5)X  21:50+822:00+1310m321292.687188mCRBallarpur. Ph : 07172 - 240341, Maharashtra
36SKZRSirpur Kaghaznagar (3)X  22:48+2722:50+272m221362.3100181mSCRAdilabad Dist., Telangana
37BPABellampalli (3)  23:13+3423:15+332m221400.879205mSCRTel:.08735 223298, Telangana
38MCIManchiryal (3)  23:30+3623:32+352m221420.792159mSCRAdilabad Dist., Telangana
39RDMRamagundam (3)  23:41+4423:43+442m221434.4105170mSCRKarimnagar Dist. Ph : 08728 - 255237, Telangana
40PDPLPeddapalli Junction (2)  23:53+5123:55+512m221451.985228mSCRKarimnagar Dist., Telangana
41JMKTJamikunta (2)X  00:23+4400:25+442m231491.439236mSCRKarimnagar Dist., Telangana
42KZJKazipet Junction (3)XO  01:20+4402:30+570m--31527.047292mSCRWarangal Dist., Telangana
43WLWarangal (3)X  02:43-02:45-2m131537.281271mSCRWarangal., Telangana
44NKDNekonda (2)X  03:07-03:09-2m131566.984236mSCRWarangal Dist., Telangana
45KDMKesamudram (2)X  03:20-03:22-2m131582.4149223mSCRWarangal Dist., Telangana
46MABDMahbubabad (2)X  03:28-03:30-2m131597.352200mSCRWarangal Dist., Telangana
47DKJDornakal Junction (3)X  03:58-04:00-2m231621.7115153mSCRWarangal District, Telangana
48KMTKhammam (2)  04:12-04:14-2m131644.793118mSCRKhammam 507001, Telangana
49MDRMadhira (2)X  04:43-04:45-2m131689.52861mSCRKhammam Dist., Telangana
50BZAVijayawada Junction (10)06:45-07:05-20m--31745.17924mSCRVijayawada 520001, Andhra Pradesh
51EEEluru (3)X  07:50-07:52-2m--31804.59219mSCREluru Ph.no. 08812 226401., Andhra Pradesh
52TDDTadepalligudem (3)X  08:23-08:25-2m231852.27518mSCRTadepalligudem, Andhra Pradesh
53NDDNidadavolu Junction (3)X  08:41-08:43-2m--31872.22720mSCRNidadavolu jtn ph.no. 08813-210325, Andhra Pradesh
54RJY•Rajahmundry (3)•  09:32-09:34-2m331894.47223mSCRRajahmundry ph.no. 0883-2420541, Andhra Pradesh
55SLOSamalkot Junction (3)X  10:16-10:18-2m131944.68818mSCRSamalkot, Andhra Pradesh
56ANVAnnavaram (3)  10:43-10:45-2m331981.47727mSCREast Godavari District, Andhra Pradesh
57TUNITuni (2)X  10:58-11:00-2m231998.15624mSCRTuni ph.no. 08854-252172, Andhra Pradesh
58AKPAnakapalle (3)O  12:08-12:10-2m--32061.92930mSCRAnakapalle ph.no . 08924-221698, Andhra Pradesh
59DVDDuvvada (4)X  12:43-12:45-2m--32077.92246mECoRVishakhapatnam District, Andhra Pradesh
60VSKPVisakhapatnam Junction (8)  13:30--632094.2-11mECoRVishakhapatnam 530001, Andhra Pradesh
Scroll to Top
Scroll to Bottom